Regional Weather Roundup
Issued by NWS

Home | Current Version | Previous Version | Graphics & Text | Print | Product List | Glossary On
Versions: 1 2 3 4 5 6 7 8 9 10 11 12 13 14 15 16 17 18 19 20 21 22 23 24 25 26 27 28 29 30 31 32 33 34 35 36 37 38 39 40 41 42 43 44 45 46 47 48 49 50
000
ASUS43 KLSX 270559
RWRMO

WEATHER SUMMARY FOR MISSOURI
NATIONAL WEATHER SERVICE SPRINGFIELD MO
1200 AM CST SAT DEC 27 2014

NOTE: "FAIR" INDICATES FEW OR NO CLOUDS BELOW 12,000 FEET WITH NO
       SIGNIFICANT WEATHER AND/OR OBSTRUCTIONS TO VISIBILITY.
       CURRENT SKY AND/OR WEATHER CONDITIONS ARE NOT AVAILABLE FOR
       CHILLICOTHE AND FARMINGTON.

MOZ001>031-035>038-043-044-053-054-270700-
...NORTHERN AND WESTERN MISSOURI...

CITY           SKY/WX    TMP DP  RH WIND       PRES   REMARKS
KANSAS CTY INT LGT RAIN  36  33  89 W9        30.01R WCI  29
6HR MIN TEMP:  36; 6HR MAX TEMP:  39; 6HR PCP: TRACE;

KANSAS C DTWN  CLOUDY    40  34  79 W9        30.01S
6HR MIN TEMP:  40; 6HR MAX TEMP:  43;

LEE`S SUMMIT   CLOUDY    40  36  86 W6        29.99F
6HR MIN TEMP:  40; 6HR MAX TEMP:  46; 6HR PCP:  0.02;

ST JOSEPH      LGT RAIN  36  33  89 W9        30.03R WCI  29
6HR MIN TEMP:  36; 6HR MAX TEMP:  38; 6HR PCP: TRACE;

CHILLICOTHE      N/A     43  40  89 CALM      29.99S
6HR MIN TEMP:  43; 6HR MAX TEMP:  49;


$$
MOZ066>068-077>081-088>096-101>105-270700-
...SOUTHWEST MISSOURI...

CITY           SKY/WX    TMP DP  RH WIND       PRES   REMARKS
SPRINGFIELD    CLOUDY    49  48  97 S12       30.02S FOG
6HR MIN TEMP:  49; 6HR MAX TEMP:  50; 6HR PCP:  0.01;

JOPLIN         CLOUDY    53  51  93 SW12      30.02S
6HR MIN TEMP:  51; 6HR MAX TEMP:  53; 6HR PCP: TRACE;


$$
MOZ032>034-039>042-045>050-055>058-069>072-270700-
...CENTRAL MISSOURI...

CITY           SKY/WX    TMP DP  RH WIND       PRES   REMARKS
COLUMBIA       CLOUDY    50  47  89 S10       30.01R
6HR MIN TEMP:  50; 6HR MAX TEMP:  54; 6HR PCP:  0.01;

JEFFERSON CITY CLOUDY    50  46  86 S7        30.03R
6HR MIN TEMP:  50; 6HR MAX TEMP:  56; 6HR PCP: TRACE;

ROLLA          CLOUDY    46  44  93 S13       30.02S
6HR MIN TEMP:  45; 6HR MAX TEMP:  51; 6HR PCP:  0.08;

SEDALIA        CLOUDY    53  49  86 SW12      29.99S
6HR MIN TEMP:  53; 6HR MAX TEMP:  56; 6HR PCP: TRACE;

OSAGE BEACH    CLOUDY    48  45  87 S7        30.02S

$$
MOZ051-052-059>065-270700-
...EAST CENTRAL MISSOURI...

CITY           SKY/WX    TMP DP  RH WIND       PRES   REMARKS
ST LOUIS INTL  LGT RAIN  49  45  86 S8        30.06F FOG
6HR MIN TEMP:  49; 6HR MAX TEMP:  56; 6HR PCP:  0.08;

SPIRIT OF STL  CLOUDY    49  46  90 CALM      30.05S
6HR MIN TEMP:  48; 6HR MAX TEMP:  56; 6HR PCP:  0.08;

ST CHARLES     LGT RAIN  47  46  97 S6        30.05F
6HR MIN TEMP:  47; 6HR MAX TEMP:  53; 6HR PCP:  0.08;


$$
MOZ072>076-082>087-097>100-106>115-270700-
...SOUTH CENTRAL AND SOUTHEAST MISSOURI...

CITY           SKY/WX    TMP DP  RH WIND       PRES   REMARKS
CAPE GIRARDEAU CLOUDY    48  41  76 SE8       30.13F
6HR MIN TEMP:  48; 6HR MAX TEMP:  50;

FARMINGTON     CLOUDY    46  43  87 SE14      30.10R
POPLAR BLUFF   LGT RAIN  47  43  86 SE5       30.11F FOG
6HR MIN TEMP:  47; 6HR MAX TEMP:  51; 6HR PCP:  0.01;

WEST PLAINS    CLOUDY    47  45  93 S7        30.08S
6HR MIN TEMP:  45; 6HR MAX TEMP:  49; 6HR PCP:  0.16;


$$



USA.gov is the U.S. government's official web portal to all federal, state and local government web resources and services.